[[{"header":{"parameterUnit":"m.s-1","parameterCategory":1,"la1":30.2992,"la2":30.254,"lo1":-89.0895,"lo2":-89.0443,"dy":0.0025,"dx":0.0025,"nx":19,"ny":19,"refTime":"2026-04-12T21:00:00:Z","depth":0,"parameterNumber":2,"parameterNumberName":"U-component_of_WINDS"},"data":[0,0,0,-2.2884,-2.2888,-2.3069,-2.307,-2.329,-2.3292,0,0,0,0,0,0,0,0,0,0,0,-2.2821,-2.2822,-2.2884,-2.2888,-2.3069,-2.307,-2.329,-2.3292,0,0,0,0,0,0,0,0,0,0,0,-2.2821,-2.2822,-2.2823,-2.2889,-2.3069,-2.307,-2.3289,-2.3157,0,0,0,0,0,0,0,0,0,0,-2.2984,-2.2915,-2.2822,-2.2823,-2.289,-2.3069,-2.307,-2.3151,-2.3166,-2.3202,0,-2.323,0,-2.3264,-2.3306,-2.3306,0,0,0,-2.2896,-2.2903,-2.2961,-2.2824,-2.2891,-2.3069,-2.299,-2.3159,-2.3176,-2.3221,-2.3233,-2.3242,-2.3268,-2.3307,-2.3308,-2.3488,-2.3488,0,0,-2.2886,-2.2849,-2.2949,-2.297,-2.2939,-2.2984,-2.2995,-2.3169,-2.3181,-2.3234,-2.3247,-2.3271,-2.3308,-2.331,-2.3487,-2.3488,0,0,0,-2.2852,-2.2842,-2.2895,-2.2961,-2.2994,-2.2989,-2.3002,-2.3174,-2.3194,-2.325,-2.3274,-2.331,-2.3312,-2.3487,-2.3488,-2.3474,0,0,0,-2.2846,-2.2822,-2.289,-2.287,-2.2991,-2.3086,-2.3002,-2.3182,-2.3203,-2.3273,-2.331,-2.3314,-2.3486,-2.3487,-2.3473,-2.3474,0,0,0,-2.2813,-2.2818,-2.2841,-2.2867,-2.2944,-2.3084,-2.3115,-2.3187,-2.3217,-2.3307,-2.3315,-2.3486,-2.3487,-2.3473,-2.3473,-2.351,0,0,0,-2.2767,-2.2828,-2.284,-2.2918,-2.2942,-2.3074,-2.3114,-2.3214,-2.329,-2.3311,-2.3487,-2.3488,-2.3472,-2.3472,-2.3509,-2.3533,-2.354,0,0,-2.2823,-2.2833,-2.2882,-2.2899,-2.3018,-2.3049,-2.3168,-2.3273,-2.3316,-2.3429,-2.3434,-2.3473,-2.3473,-2.3509,-2.3592,-2.3597,0,0,0,-2.2888,-2.2922,-2.2962,-2.3031,-2.3111,-2.318,-2.327,-2.3309,-2.3406,-2.3366,-2.3498,-2.3499,-2.3522,-2.3536,-2.354,-2.3562,-2.3492,-2.3492,-2.3492,-2.2916,-2.2966,-2.305,-2.3123,-2.3189,-2.3281,-2.334,-2.3409,-2.3442,-2.3473,-2.3506,-2.355,-2.3564,-2.3567,-2.359,-2.3524,-2.3524,-2.3524,-2.3524,-2.3003,-2.306,-2.3101,-2.3197,-2.3251,-2.3334,-2.3425,-2.3446,-2.3532,-2.3529,-2.3552,-2.3543,-2.3571,-2.3593,-2.3523,-2.3523,-2.3523,-2.3523,-2.3523,-2.3026,-2.3062,-2.3107,-2.3211,-2.3286,-2.3359,-2.3438,-2.3486,-2.3531,-2.3554,-2.3594,-2.3594,-2.36,-2.357,-2.357,-2.357,-2.357,-2.357,-2.357,-2.3031,-2.3083,-2.3143,-2.3232,-2.3283,-2.3355,-2.3448,-2.35,-2.3569,-2.3598,-2.3598,-2.3628,-2.3564,-2.3546,-2.3573,-2.3572,-2.3572,-2.3572,-2.3572,-2.31,-2.3092,-2.3184,-2.3234,-2.3344,-2.3415,-2.3474,-2.3575,-2.3625,-2.3663,-2.3689,-2.3634,-2.3648,-2.3645,-2.3631,-2.3677,-2.3677,-2.3677,-2.3677,-2.3119,-2.313,-2.3235,-2.3312,-2.3393,-2.3455,-2.356,-2.3634,-2.3709,-2.3744,-2.3744,-2.373,-2.3724,-2.3742,-2.3737,-2.3724,-2.3794,-2.3794,-2.3794,-2.3164,-2.3185,-2.3263,-2.3335,-2.3424,-2.35,-2.36,-2.3688,-2.3773,-2.38,-2.3772,-2.3767,-2.3744,-2.3734,-2.3758,-2.3749,-2.3727,0,0]},{"header":{"parameterUnit":"m.s-1","parameterCategory":1,"la1":30.2992,"la2":30.254,"lo1":-89.0895,"lo2":-89.0443,"dy":0.0025,"dx":0.0025,"nx":19,"ny":19,"refTime":"2026-04-12T21:00:00:Z","depth":0,"parameterNumber":3,"parameterNumberName":"V-component_of_WINDS"},"data":[0,0,0,3.9208,3.921,3.9264,3.9264,3.9351,3.9352,0,0,0,0,0,0,0,0,0,0,0,3.9203,3.9204,3.9208,3.921,3.9264,3.9264,3.9351,3.9352,0,0,0,0,0,0,0,0,0,0,0,3.9203,3.9204,3.9205,3.921,3.9264,3.9264,3.935,3.9303,0,0,0,0,0,0,0,0,0,0,3.9247,3.9254,3.9204,3.9205,3.921,3.9264,3.9264,3.93,3.9306,3.9334,0,3.9363,0,3.9359,3.9359,3.9359,0,0,0,3.9201,3.9249,3.9254,3.9206,3.9211,3.9264,3.9237,3.9303,3.931,3.9341,3.9364,3.9366,3.936,3.9359,3.936,3.9555,3.9556,0,0,3.9198,3.9219,3.925,3.9259,3.9253,3.9235,3.9239,3.9307,3.9332,3.9364,3.9368,3.9362,3.936,3.9361,3.9554,3.9555,0,0,0,3.9195,3.9217,3.922,3.9256,3.9265,3.9237,3.9241,3.9329,3.9328,3.9369,3.9363,3.9361,3.9362,3.9552,3.9554,3.9643,0,0,0,3.9193,3.9216,3.9219,3.9232,3.9264,3.9298,3.9262,3.9324,3.9331,3.9362,3.9361,3.9363,3.9551,3.9553,3.9637,3.9681,0,0,0,3.9196,3.9216,3.9228,3.9233,3.9258,3.9296,3.9299,3.9325,3.9327,3.9359,3.9363,3.955,3.9553,3.9632,3.9673,3.974,0,0,0,3.9205,3.9304,3.923,3.9338,3.9258,3.9351,3.9298,3.9366,3.9404,3.9361,3.9551,3.9554,3.9631,3.9668,3.9735,3.9802,3.9832,0,0,3.9342,3.9321,3.9384,3.9319,3.9431,3.9341,3.9466,3.9479,3.9461,3.9524,3.9529,3.9639,3.9672,3.9739,3.9988,4.0012,0,0,0,3.9434,3.948,3.9505,3.9543,3.9557,3.9572,3.9564,3.9569,3.9623,3.9498,3.968,3.9699,3.9738,3.9769,3.9789,3.9821,3.9569,3.9569,3.9568,3.9659,3.9633,3.9735,3.9716,3.9754,3.9746,3.9773,3.9778,3.9739,3.9783,3.9802,3.9956,3.9993,4.0008,4.0042,3.9834,3.9834,3.9834,3.9834,3.9859,3.992,3.9867,3.9947,3.9919,3.9985,3.9981,3.9951,4.0008,3.9939,3.9971,3.9899,4.0035,4.0063,3.9841,3.984,3.9839,3.9838,3.9838,4.0005,4.0029,4.0035,4.0089,4.0133,4.0109,4.0167,4.0138,4.0111,4.0143,4.016,4.0159,4.0155,4.0153,4.0154,4.0154,4.0155,4.0155,4.0155,4.0154,4.0158,4.0211,4.0236,4.0257,4.0282,4.0275,4.0295,4.0309,4.0283,4.0283,4.0241,4.0053,4.0007,4.0164,4.0162,4.0161,4.016,4.016,4.0369,4.0316,4.0399,4.0421,4.0448,4.0494,4.0456,4.05,4.0511,4.0541,4.0492,4.0357,4.0333,4.0317,4.0279,4.0496,4.0496,4.0496,4.0496,4.0493,4.0478,4.0557,4.0595,4.0627,4.0602,4.0697,4.0693,4.068,4.0685,4.0649,4.0596,4.0581,4.0566,4.0544,4.0508,4.0779,4.0779,4.078,4.0624,4.0611,4.0698,4.0687,4.0706,4.0723,4.0811,4.0855,4.0828,4.0791,4.069,4.0678,4.0591,4.0564,4.0525,4.0492,4.0425,0,0]}]]